Voltar ao catálogo

YAOGAN-36 05B

AtivoMilitarVLEO
NORAD 57454·PAYLOAD·🇨🇳 China

Lançado Jul 26, 2023 de Xichang Satellite Launch Center

Loading…

Próximas Passagens (próximas 24 horas)

TLE

AtualizadoSource: Space-Track

Época: Sep 14, 2026, 16:26 UTC

1 57454U 23106C   26257.68533683  .00004104  00000-0  20181-3 0  9995
2 57454  34.9939 243.0933 0021914 184.6785 175.3725 15.17261025174466

Acompanhe YAOGAN-36 05B em tempo real com AllMySat

Download on the App Store